Retour au catalogue

STARLINK-11628

ActifCommunicationsVLEO
NORAD 63139·PAYLOAD·🇺🇸 United States

Lancé Mar 3, 2025 depuis Cape Canaveral Space Force Station

Loading…

Prochains Passages (prochaines 24 heures)

TLE

FraisSource: CelesTrak SupGP

Époque: Sep 14, 2026, 20:48 UTC

1 63139C 25043H   26257.86715278  .00046046  00000+0  35774-3 0  2577
2 63139  43.0004 190.3705 0001424 256.8453 164.2957 15.70809491    13

Suivez STARLINK-11628 en temps réel avec AllMySat

Download on the App Store